Wind_Speed
8 8 8 9 9 9 8 8 8 8 8 9 9 9 9 9 9 9 9 10 10 10 10 10 10 10 10 10 10 10 9 10 10 10 10 11 10 10 11 11 11 11 10
8 8 8 9 9 9 8 8 8 8 9 9 9 9 10 9 10 10 10 10 10 11 10 10 10 10 11 11 11 10 10 10 10 11 11 11 11 11 11 11 11 10 10
8 9 9 9 9 9 9 9 10 10 10 10 10 10 10 11 11 11 10 10 11 11 10 10 10 11 10 10 10 10 10 10 11 11 11 11 12 12 11 11 11 10 10
9 9 9 10 10 10 10 10 10 10 10 10 10 11 11 11 11 11 11 11 11 11 11 11 11 10 10 10 10 9 10 10 11 11 11 12 12 11 11 11 11 12 12
10 10 10 10 10 10 10 11 11 11 11 11 11 11 12 12 11 11 12 12 11 11 11 11 11 11 11 11 10 10 10 11 11 12 12 12 12 12 12 12 12 13 13
10 11 11 11 11 11 11 11 11 11 11 11 12 12 12 12 12 12 13 13 12 12 12 12 11 11 11 11 10 11 11 11 11 11 11 12 12 12 12 12 13 13 13
11 11 11 11 11 12 12 12 12 12 12 12 12 12 12 12 13 13 13 14 13 13 12 12 12 12 12 12 12 12 11 11 11 11 11 12 12 12 13 13 14 14 14
11 12 12 12 12 13 13 13 13 13 13 12 12 13 13 13 13 13 13 13 14 13 13 13 13 13 13 13 13 13 12 12 12 12 12 12 12 12 13 14 14 14 14
12 12 12 12 13 13 13 13 14 13 13 13 13 13 14 14 13 13 13 13 13 13 13 13 13 13 13 13 13 13 13 13 12 12 12 13 12 13 13 14 15 14 14
13 13 13 13 13 13 13 13 14 14 14 14 14 14 14 14 14 13 13 13 13 13 14 14 13 13 14 14 13 13 13 13 13 13 13 13 13 13 14 14 14 14 14
14 14 14 14 14 14 14 14 14 14 15 15 15 15 14 14 14 13 13 14 14 14 14 14 15 14 14 14 14 14 14 13 13 14 14 14 14 14 14 15 15 15 15
15 15 15 15 15 15 15 15 15 16 15 15 15 15 15 14 14 14 14 14 14 14 14 15 15 15 15 15 14 14 14 14 14 14 14 14 14 15 15 15 15 15 16
16 16 16 16 17 17 16 16 16 16 16 16 16 15 15 15 15 15 14 14 14 14 15 15 15 15 15 15 15 15 15 15 15 16 16 16 16 15 16 16 16 16 16
18 17 17 17 17 17 18 17 17 17 17 17 17 17 16 16 16 16 15 14 15 15 15 15 15 16 16 16 16 16 16 16 16 17 17 17 17 17 16 16 16 16 16
20 19 19 19 19 19 19 19 19 19 19 19 19 18 18 17 17 16 15 15 15 15 16 16 16 17 17 17 17 17 17 17 18 18 18 18 18 18 17 17 17 17 17
21 21 21 21 21 21 20 20 20 20 20 20 20 19 19 18 18 17 17 16 16 16 16 17 17 17 18 18 18 19 19 20 19 19 19 19 19 18 18 18 18 18 18
22 22 22 22 22 22 22 22 22 21 21 21 21 20 20 19 19 18 18 18 17 17 17 17 17 18 18 18 19 20 21 21 20 20 21 20 20 20 19 19 19 19 19
24 24 25 24 24 24 24 24 23 23 23 23 22 22 21 20 20 19 19 18 18 18 18 18 18 18 18 19 20 20 20 21 21 21 22 22 21 21 21 20 20 20 20
25 25 26 26 26 26 26 26 25 25 25 24 23 22 21 21 21 20 19 19 19 19 19 20 20 20 20 21 21 21 21 21 22 22 22 22 22 22 21 21 21 20 20
27 26 26 26 27 27 27 27 26 26 26 25 24 23 22 22 21 21 21 20 20 20 21 21 22 22 22 22 22 22 22 23 23 23 23 22 22 22 22 22 21 21 21
27 28 27 28 28 28 28 28 27 27 27 26 25 24 23 23 23 22 22 22 22 22 22 22 23 23 23 23 23 23 23 22 22 23 23 23 23 22 22 22 22 22 22
29 29 29 29 29 28 28 28 28 27 27 27 26 26 25 25 25 24 24 24 24 23 23 23 23 23 23 23 23 23 23 23 22 22 22 22 22 22 22 23 23 23 23
30 30 30 30 30 30 29 28 28 28 28 28 28 27 27 27 27 27 26 25 25 25 25 23 23 23 24 24 24 24 24 24 23 23 23 23 23 23 23 24 24 24 24
31 30 31 30 30 30 30 30 29 29 28 28 27 27 27 27 28 28 28 27 26 26 25 25 25 24 25 26 26 25 25 25 24 24 24 24 24 25 25 25 25 25 25
31 31 32 31 31 31 30 30 30 30 30 29 28 28 28 28 28 28 28 28 27 27 26 26 26 26 26 26 27 27 26 26 26 25 25 25 26 26 26 26 26 26 26
32 32 31 32 31 31 30 31 31 30 30 30 29 29 28 28 28 28 28 28 28 27 27 27 27 27 27 27 27 27 27 27 27 27 27 27 27 28 28 27 27 27 27
Wind_Direction
277 276 279 283 286 289 292 293 293 294 294 290 290 291 288 286 280 280 279 277 272 271 275 277 276 276 277 278 277 275 271 269 269 271 275 276 277 274 272 273 273 275 277
272 274 279 285 286 286 288 288 287 288 287 284 286 286 282 281 278 278 277 276 271 269 271 270 270 270 271 271 270 266 263 264 268 270 273 275 277 277 276 276 275 275 273
280 280 283 284 283 281 283 285 284 285 285 286 286 284 283 282 279 277 276 275 270 268 270 269 269 270 271 269 271 267 267 267 270 272 273 275 276 277 277 278 276 276 274
281 284 288 289 286 282 284 284 284 283 282 284 287 286 286 285 282 278 276 275 271 270 271 271 271 271 270 270 269 268 269 271 273 276 275 277 278 276 277 278 276 274 274
282 282 286 287 286 285 284 283 284 283 281 282 285 287 287 286 283 280 277 276 273 272 272 271 270 270 269 268 266 266 270 273 275 278 279 279 277 275 276 277 276 274 274
282 282 285 284 284 285 285 284 285 286 284 283 283 286 286 284 281 280 279 276 274 271 270 270 268 267 266 266 266 268 272 276 277 278 280 278 276 275 277 277 277 276 276
284 282 283 282 282 283 282 283 284 287 287 284 286 288 286 281 280 278 278 276 274 271 268 267 265 265 266 267 269 272 273 276 279 282 281 280 278 276 276 277 278 277 277
288 284 282 281 281 281 281 282 283 286 287 287 287 288 286 283 279 276 276 275 273 270 266 264 263 264 264 264 267 269 272 275 278 281 283 283 280 278 276 278 278 277 277
288 286 284 284 282 282 283 284 285 288 288 287 286 285 285 284 282 278 275 273 272 271 267 264 262 262 263 263 265 267 270 273 278 281 283 282 280 279 277 277 279 279 278
289 287 285 286 286 282 284 285 285 287 288 287 285 283 283 284 283 280 276 274 273 271 268 265 262 263 263 263 264 267 270 272 277 278 279 281 281 281 281 280 280 281 282
289 288 287 287 287 285 284 285 285 286 288 288 286 283 282 282 283 281 275 272 271 271 268 265 263 263 263 263 264 267 270 272 275 276 277 279 281 281 282 282 281 280 281
287 286 286 286 286 285 284 284 283 285 287 287 286 282 280 281 281 280 276 271 269 270 270 267 265 264 264 263 264 266 269 270 274 276 276 278 279 280 281 281 280 280 279
282 283 283 283 284 285 284 283 283 284 285 285 283 280 279 279 280 278 274 271 269 270 269 268 268 266 265 263 263 266 269 271 273 274 275 276 277 280 281 280 278 278 279
279 280 280 281 281 281 282 282 283 282 284 284 282 279 277 279 279 276 274 272 270 270 268 267 268 268 266 265 265 266 269 272 273 273 273 274 276 277 281 281 279 278 278
279 280 279 279 279 280 279 279 281 282 284 284 281 278 276 276 276 273 271 272 272 271 269 268 268 268 268 268 267 269 271 273 273 275 274 273 275 276 279 281 279 278 276
277 279 279 279 279 278 277 277 278 279 281 283 281 277 275 273 272 270 269 269 270 272 270 267 268 269 270 271 269 269 271 273 273 275 274 275 274 274 276 278 278 279 276
275 276 278 278 279 278 277 277 276 277 278 279 279 276 274 272 270 267 267 268 270 270 270 270 269 270 271 272 271 272 272 273 273 274 274 275 274 273 275 277 278 277 275
275 275 276 276 276 276 275 275 276 276 276 276 276 274 272 270 268 266 266 268 268 268 269 272 272 272 271 274 274 274 275 275 275 275 275 274 273 273 275 276 277 277 275
275 276 277 276 276 275 274 273 273 273 273 275 274 271 270 268 267 266 266 267 268 268 269 271 272 273 273 275 274 275 276 276 275 275 275 273 272 273 273 275 276 275 274
274 276 277 277 276 275 274 272 271 271 271 271 270 267 267 267 266 265 266 268 269 270 270 270 272 273 274 274 275 276 276 277 276 276 274 272 271 272 272 273 274 274 274
274 274 275 275 275 275 274 272 270 269 268 267 265 264 265 266 265 265 267 268 269 271 273 272 274 274 273 271 273 274 276 278 278 277 274 272 271 272 272 273 273 273 273
274 275 274 274 274 274 274 272 271 269 267 265 262 262 264 265 264 264 265 267 270 271 273 273 273 274 273 272 273 275 276 276 277 277 276 273 271 272 273 274 274 273 273
274 274 275 274 273 273 273 272 270 268 266 264 262 261 262 264 263 263 264 267 269 270 271 272 273 274 274 274 274 276 276 275 275 276 274 272 272 272 273 274 274 273 273
274 275 275 275 274 273 271 270 269 267 265 263 262 261 262 263 263 262 263 267 268 270 270 270 272 271 272 273 274 275 275 274 274 274 275 274 273 273 274 275 275 274 274
275 275 275 275 274 273 271 269 268 265 264 263 262 261 262 263 264 263 263 265 266 267 268 269 270 271 272 273 274 274 274 273 273 273 274 274 273 273 273 274 275 274 273
275 275 275 275 274 273 271 269 268 266 264 262 261 261 261 262 263 264 265 265 263 265 267 269 270 271 273 273 274 275 275 274 274 273 272 274 273 273 273 272 273 273 272
Height
5857 5857 5857 5857 5856 5856 5856 5855 5855 5854 5854 5853 5852 5852 5851 5851 5850 5850 5849 5849 5849 5848 5848 5847 5847 5847 5847 5846 5846 5846 5846 5846 5846 5845 5845 5845 5845 5844 5844 5844 5843 5843 5843
5855 5855 5855 5855 5854 5854 5854 5853 5852 5852 5852 5851 5850 5850 5849 5848 5848 5847 5847 5846 5846 5846 5845 5845 5845 5845 5844 5844 5844 5844 5844 5844 5843 5843 5843 5842 5842 5842 5841 5841 5841 5841 5840
5853 5853 5853 5853 5852 5852 5851 5851 5850 5850 5849 5849 5848 5847 5846 5846 5845 5844 5844 5844 5843 5843 5843 5842 5842 5842 5842 5841 5841 5841 5841 5841 5841 5840 5840 5840 5840 5839 5839 5839 5838 5838 5838
5851 5851 5851 5850 5850 5849 5849 5848 5848 5847 5847 5846 5845 5845 5844 5843 5842 5842 5841 5841 5840 5840 5840 5840 5839 5839 5839 5838 5838 5838 5839 5838 5838 5838 5837 5837 5837 5836 5836 5836 5836 5835 5835
5849 5849 5848 5848 5847 5847 5846 5845 5845 5844 5844 5843 5843 5842 5841 5840 5840 5839 5838 5838 5837 5837 5837 5837 5836 5836 5836 5836 5836 5836 5835 5835 5835 5835 5834 5834 5834 5834 5833 5833 5833 5833 5832
5846 5846 5846 5845 5845 5844 5843 5843 5842 5841 5841 5840 5840 5839 5838 5837 5836 5836 5835 5835 5834 5834 5833 5833 5833 5833 5833 5833 5833 5833 5832 5832 5832 5832 5831 5831 5831 5830 5830 5830 5830 5829 5829
5844 5843 5843 5842 5842 5841 5840 5840 5839 5838 5837 5837 5836 5836 5835 5834 5833 5832 5831 5831 5831 5830 5830 5830 5830 5830 5830 5830 5830 5830 5829 5829 5829 5829 5828 5828 5827 5827 5827 5827 5826 5826 5826
5841 5840 5840 5839 5838 5838 5837 5836 5836 5835 5834 5833 5833 5832 5831 5831 5829 5828 5828 5827 5827 5826 5826 5826 5826 5827 5827 5827 5827 5826 5826 5826 5826 5825 5825 5825 5824 5824 5823 5823 5823 5823 5822
5838 5837 5836 5835 5835 5834 5833 5833 5832 5831 5830 5829 5829 5828 5827 5826 5826 5825 5824 5823 5823 5823 5823 5823 5823 5823 5823 5823 5823 5823 5823 5823 5822 5822 5822 5821 5821 5820 5820 5820 5819 5819 5818
5834 5833 5833 5832 5831 5830 5829 5829 5828 5827 5826 5825 5825 5824 5823 5822 5822 5821 5820 5820 5819 5819 5819 5819 5819 5819 5819 5819 5819 5819 5819 5819 5819 5818 5818 5817 5817 5817 5816 5816 5815 5815 5814
5831 5830 5829 5828 5827 5826 5826 5825 5824 5823 5822 5821 5820 5820 5819 5818 5817 5817 5816 5816 5815 5815 5815 5815 5815 5815 5815 5815 5815 5815 5815 5815 5815 5814 5814 5814 5813 5813 5812 5812 5811 5810 5810
5827 5826 5825 5824 5823 5822 5821 5820 5820 5819 5818 5817 5816 5815 5815 5814 5813 5813 5812 5812 5811 5811 5810 5810 5810 5810 5811 5811 5811 5811 5811 5811 5811 5810 5810 5810 5809 5809 5808 5808 5807 5806 5806
5822 5821 5820 5819 5818 5817 5816 5816 5815 5814 5813 5812 5811 5810 5810 5809 5809 5808 5808 5807 5807 5807 5806 5806 5806 5806 5806 5806 5807 5807 5806 5806 5806 5806 5806 5805 5805 5804 5804 5803 5802 5802 5801
5818 5817 5816 5815 5813 5812 5811 5811 5810 5809 5808 5807 5806 5805 5805 5804 5804 5803 5803 5803 5803 5802 5802 5802 5802 5802 5802 5802 5802 5802 5802 5802 5801 5801 5801 5800 5800 5800 5799 5798 5798 5797 5796
5812 5811 5810 5809 5808 5807 5806 5805 5804 5803 5802 5802 5801 5800 5799 5799 5798 5798 5798 5798 5798 5798 5798 5797 5797 5797 5797 5797 5797 5797 5797 5797 5796 5796 5796 5795 5795 5794 5794 5793 5793 5792 5791
5806 5805 5804 5803 5802 5801 5800 5799 5798 5797 5797 5796 5795 5794 5794 5794 5793 5793 5793 5793 5793 5793 5793 5793 5792 5792 5792 5792 5792 5792 5792 5791 5791 5790 5790 5790 5789 5789 5789 5788 5787 5787 5786
5800 5799 5798 5797 5796 5795 5794 5793 5792 5791 5791 5790 5789 5788 5788 5788 5788 5788 5788 5788 5788 5788 5788 5788 5787 5787 5787 5787 5786 5786 5786 5785 5785 5785 5784 5784 5784 5783 5783 5782 5782 5781 5780
5793 5792 5791 5790 5789 5788 5787 5786 5786 5785 5784 5784 5783 5782 5782 5782 5782 5782 5783 5783 5783 5783 5782 5782 5782 5782 5781 5781 5780 5780 5780 5779 5779 5778 5778 5778 5777 5777 5777 5776 5776 5775 5774
5785 5784 5783 5782 5781 5780 5779 5779 5778 5777 5777 5777 5776 5776 5776 5776 5776 5777 5777 5777 5777 5777 5777 5777 5776 5776 5776 5775 5774 5774 5773 5773 5772 5772 5771 5771 5771 5770 5770 5770 5770 5769 5768
5777 5776 5775 5774 5773 5772 5771 5770 5770 5770 5769 5769 5769 5769 5770 5770 5771 5771 5771 5771 5771 5771 5771 5771 5770 5770 5770 5769 5768 5768 5767 5766 5765 5765 5764 5764 5764 5764 5764 5763 5763 5762 5762
5769 5768 5767 5765 5764 5764 5763 5762 5762 5761 5761 5761 5762 5762 5763 5763 5764 5764 5765 5765 5765 5765 5765 5764 5764 5763 5763 5762 5762 5761 5760 5759 5758 5757 5757 5757 5757 5757 5756 5756 5756 5756 5755
5760 5759 5758 5757 5755 5755 5754 5753 5753 5753 5753 5753 5754 5755 5755 5756 5757 5757 5758 5758 5758 5758 5758 5758 5757 5756 5756 5755 5755 5754 5753 5753 5752 5751 5750 5750 5750 5750 5749 5749 5749 5748 5748
5751 5749 5748 5747 5746 5746 5745 5744 5744 5744 5744 5745 5745 5746 5747 5748 5749 5749 5750 5750 5750 5751 5751 5751 5750 5750 5749 5748 5748 5747 5746 5745 5745 5744 5743 5743 5743 5743 5742 5742 5741 5741 5740
5741 5740 5739 5738 5737 5736 5736 5735 5735 5735 5735 5736 5737 5738 5738 5739 5740 5741 5742 5742 5743 5743 5743 5743 5743 5742 5741 5741 5740 5740 5739 5738 5738 5737 5736 5736 5736 5735 5735 5734 5733 5733 5733
5731 5730 5729 5728 5727 5727 5726 5725 5725 5726 5726 5727 5728 5729 5730 5731 5731 5732 5733 5734 5734 5735 5735 5735 5735 5734 5733 5733 5732 5732 5731 5730 5730 5729 5729 5728 5728 5727 5727 5726 5726 5725 5725
5721 5720 5719 5718 5717 5717 5716 5716 5716 5716 5717 5718 5719 5720 5721 5722 5723 5723 5724 5725 5725 5726 5726 5726 5726 5725 5725 5724 5724 5723 5723 5722 5722 5721 5720 5720 5719 5719 5719 5718 5717 5717 5716